Home > Weather > Friesoythe > Past weeks

Flag for Germany Weather for the Past 2 Weeks in Friesoythe, Lower Saxony, Germany

Now
48 °F

Broken clouds.


Feels Like: 46 °F
Forecast: 38 / 59 °F
Wind: 5 mph from West

Location: Meppen-Mil

Current Time: May 3, 2016 at 9:44:06 AM

Latest Report: May 3, 2016 at 8:20 AM


Visibility: N/A

Pressure: 30.09 "Hg

Humidity: 87%

Dew Point: 45 °F

Location of FriesoytheLocation

Historic Weather in Friesoythe — Graph

°F

Friesoythe Temperature Yesterday

Maximum temperature yesterday: 66 °F (at 2:20 PM)
Minimum temperature yesterday: 34 °F (at 5:20 AM)
Average temperature yesterday: 53 °F

High & Low Weather Summary for the Past Weeks

 TemperatureHumidityPressure
High66 °F (May 2, 2:20 PM)93% (Apr 20, 4:20 AM)30.48 "Hg (Apr 20, 4:20 AM)
Low28 °F (Apr 21, 4:20 AM)34% (Apr 21, 5:20 PM)29.33 "Hg (Apr 26, 8:20 AM)
Average44 °F72%30.03 "Hg
* Reported Apr 18 8:20 AM — May 3 8:20 AM, Friesoythe, Weather by CustomWeather, © 2016

Note: Actual official high and low records may vary slightly from our data, if they occured in-between our weather recording intervals... More about our weather records

Advertising

Friesoythe Weather History for the Previous 24 Hours

Scroll right to see more
 ConditionsComfort  
Time TempWeatherWind HumidityBarometerVisibility
8:20 AM
Tue, May 3
48 °FBroken clouds.5 mph87%30.09 "HgN/A
7:20 AM46 °FPassing clouds.2 mph93%30.07 "HgN/A
6:20 AM46 °FLight rain. Passing clouds.5 mph87%30.04 "HgN/A
5:20 AM50 °FCool.9 mph88%30.01 "Hg2 mi
4:20 AM52 °FCool.5 mph88%30.01 "HgN/A
3:20 AM54 °FCool.5 mph77%30.01 "HgN/A
2:20 AM54 °FCool.3 mph72%30.04 "HgN/A
1:20 AM54 °FCool.2 mph67%30.04 "HgN/A
12:20 AM54 °FCool.3 mph67%30.07 "HgN/A
11:20 PM
Mon, May 2
54 °FCool.3 mph72%30.07 "HgN/A
10:20 PM54 °FCool.1 mph72%30.07 "HgN/A
9:20 PM57 °FRefreshingly cool.1 mph59%30.07 "HgN/A
8:20 PM63 °FMild.3 mph45%30.07 "HgN/A
7:20 PM64 °FMild.5 mph43%30.09 "HgN/A
6:20 PM66 °FMild.6 mph35%30.09 "HgN/A
5:20 PM66 °FMild.6 mph35%30.12 "HgN/A
4:20 PM66 °FMild.6 mph37%30.12 "HgN/A
3:20 PM66 °FMild.8 mph35%30.15 "HgN/A
2:20 PM66 °FScattered clouds.8 mph37%30.18 "HgN/A
1:20 PM64 °FScattered clouds.6 mph46%30.21 "HgN/A
12:20 PM63 °FScattered clouds.7 mph52%30.21 "HgN/A
11:20 AM59 °FScattered clouds.5 mph55%30.24 "HgN/A
10:20 AM57 °FScattered clouds.3 mph59%30.24 "HgN/A
9:20 AM52 °FPartly sunny.2 mph72%30.27 "HgN/A
Weather by CustomWeather, © 2016

See weather overviewHow to use our weather pages